Terug naar catalogus

COSMOS 1867 COOLANT

ActiefLEO
NORAD 39661·DEBRIS·🇷🇺 Russia

Gelanceerd Jul 10, 1987 vanaf Baikonur Cosmodrome

Loading…

Volgende Passages (komende 24 uur)

TLE

VersSource: Space-Track

Epoch: Sep 13, 2026, 21:13 UTC

1 39661U 87060Y   26256.88405679  .00000250  00000-0  12323-3 0  9995
2 39661  65.0066 115.8756 0019451 277.8530  82.0348 14.34749206649425

Volg COSMOS 1867 COOLANT in realtime met AllMySat

Download on the App Store